Location: Aula-Vintri
(58.3875°N, 22.4322°E)
Time: 01:55:26
(UTC+00:00)

SKYMED 2 - Pass Details

Date: 13 October 2019
Orbit: 621 x 623 km, 97.9° (Epoch: 15 November)

Event Time Altitude Azimuth Distance (km) Brightness Sun altitude
Rises 16:45:44 0° 17° (NNE) 2,921 6.9 -10.5°
Reaches altitude 10° 16:47:57 10° 20° (NNE) 2,009 6.0 -10.8°
Maximum altitude 16:52:19 69° 103° (ESE) 674 3.5 -11.4°
Drops below altitude 10° 16:56:38 10° 188° (S) 1,993 6.2 -11.9°
Sets 16:58:50 0° 191° (S) 2,894 7.1 -12.2°
